www.pogodaiklimat.ru

Погода и климат >> Архив погоды >> Хорватия >> Senj


ПОГОДА в Senj

  • Прогноз погоды в Senj
  • Монитор погоды в Senj
  • Климат города

АРХИВ ПОГОДЫ в Senj

Время (UTC), дата Ветер
(напр.,м/с)
 
Видим.   Явления Облачность Т
(С)
Тd
(С)
f
(%)
Тe
(С)
Тes
(С)
Комфортность P
(гПа)
Po
(гПа)
Тmin
(С)
Tmax
(С)
R
(мм)
R24
(мм)
S
(см)
04 16.01 Ю 3 15 км слабый дождь 10/10 1000 м
[Sc]
+9.6 +6.6 82 +7 +7 1013.1 1009.7
05 16.01 Ю 6 20 км в посл. час дождь 10/10 1000 м
[Sc]
+10.1 +6.6 79 +7 +7 1012.4 1009.0
06 16.01 Ю 6 15 км слабый дождь 10/10 1000 м
[Sc]
+10.3 +7.0 80 +7 +7 1011.8 1008.4 +6.0 2
08 16.01 Ю 5 20 км 10/10 1000 м
[Sc]
+10.9 +7.4 79 +8 +8 1011.3 1007.9
07 16.01 Ю 5 15 км в посл. час дождь 10/10 1000 м
[Sc]
+10.9 +7.0 77 +8 +8 1011.4 1008.0
09 16.01 Ю 5 20 км 10/10 1000 м
[Sc]
+10.9 +7.4 79 +8 +8 1011.3 1007.9
10 16.01 ЮЗ 5 20 км 10/10 1000 м
[Sc]
+11.9 +6.5 69 +10 +10 1010.7 1007.3
11 16.01 З 4 20 км 10/10 1000 м
[Sc]
+11.7 +6.2 69 +10 +10 1010.3 1006.9
12 16.01 ЮЗ 2 12 км слабый дождь 10/10 1000 м
[Sc]
+10.7 +7.4 80 +9 +9 1009.5 1006.1 1
13 16.01 ЮЗ 4 8000 м слабый дождь 10/10 1000 м
[Sc]
+10.5 +8.2 86 +8 +8 1008.7 1005.3
18 16.01 Ю 6 20 км {дождь} 10/10 1000 м
[Sc]
+12.9 +7.2 68 +11 +11 1005.1 1001.8 +12.9 8
19 16.01 Ю 6 20 км 10/10 1000 м
[Sc]
+13.1 +7.7 70 +11 +11 1004.8 1001.5
20 16.01 Ю 5 15 км слабый дождь 10/10 1000 м
[Sc]
+12.9 +8.5 75 +11 +11 1004.9 1001.6
03 17.01 Ю 5 10 км слабый дождь 10/4 600 м
[Frnb As op]
+13.5 +8.7 73 +12 +12 998.5 995.2
04 17.01 ЮЗ 4 10 км в посл. час дождь 10/10 1000 м
[Sc]
+13.4 +9.0 75 +12 +12 998.0 994.7
05 17.01 ЮЗ 4 10 км {дождь} 10/10 1000 м
[Sc]
+13.4 +8.8 74 +12 +12 997.2 993.9
06 17.01 ЮЗ 3 10 км {дождь} 10/10 1000 м
[Sc]
+13.6 +8.5 71 +13 +13 996.5 993.2 +12.6 0.3
07 17.01 З 2 12 км 10/10 1000 м
[Sc]
+12.8 +9.9 83 +12 +12 996.4 993.1
08 17.01 З 2 10 км гроза, ливневой дождь 10/4 1000 м
[Cb cap As op]
+12.0 +8.3 78 +11 +11 995.6 992.3
09 17.01 Ю 2 15 км в посл. час гроза {дождь} 9/9 1000 м
[Sc]
+10.6 +8.5 87 +9 +9 995.7 992.4
10 17.01 ЮЗ 3 15 км {гроза, дождь} 9/9 1000 м
[Sc]
+11.2 +7.2 76 +9 +10 996.0 992.7
11 17.01 ЮЗ 1 10 км слабый дождь 10/4 1000 м
[Frnb As op]
+9.7 +8.2 90 +9 +10 996.5 993.2
12 17.01 ЮВ 4 8000 м гроза, ливневой дождь 10/4 1000 м
[Cb cap As op]
+6.4 +3.6 82 +3 +3 998.1 994.7 6
13 17.01 В 7 18 км в посл. час гроза {дождь} 9/9 1000 м
[Cu Sc]
+7.6 +3.1 73 +3 +3 997.5 994.1
18 17.01 СВ 2 25 км 6/3 1000 м
[Sc Ac As]
+8.2 -2.5 47 +7 +7 1005.6 1002.2 +13.6 7
19 17.01 СВ 2 25 км 5/5 1000 м
[Sc]
+7.1 -1.9 53 +5 +5 1007.4 1004.0
20 17.01 СВ 2 25 км 4/4 1000 м
[Sc]
+6.2 -4.1 48 +4 +4 1008.3 1004.9
03 18.01 ЮВ 2 30 км ясно +4.7 -8.2 39 +3 +3 1014.0 1010.5
05 18.01 В 2 30 км ясно +4.7 -8.6 37 +3 +3 1014.1 1010.6
04 18.01 ЮВ 2 30 км ясно +4.4 -8.2 39 +3 +3 1014.1 1010.6
06 18.01 ЮВ 2 30 км ясно +4.9 -7.8 39 +3 +3 1014.8 1011.3 +3.4
07 18.01 В 2 30 км ясно +3.5 -5.7 51 +1 +1 1015.6 1012.1
08 18.01 В 2 30 км ясно +5.0 -3.9 53 +3 +4 1016.4 1012.9
09 18.01 ЮВ 2 30 км 1/1 1000 м
[Sc]
+8.8 +1.5 60 +7 +10 1016.9 1013.5
11 18.01 ЮЗ 4 30 км 1/0
[Ac lent]
+10.8 +1.2 51 +9 +11 1016.2 1012.8
10 18.01 Ю 2 30 км 1/0
[Ac lent]
+10.5 +1.8 55 +9 +13 1016.8 1013.4
12 18.01 ЮЗ 3 30 км 5/0
[Ac lent]
+10.3 +0.2 50 +9 +10 1015.2 1011.8
13 18.01 ЮЗ 4 30 км 1/0
[Ac lent]
+11.5 +0.5 47 +10 +11 1014.6 1011.2
18 18.01 Ю 3 30 км 1/0
[Ac trans]
+11.1 -0.1 46 +10 +10 1013.4 1010.0 +11.6
19 18.01 ЮЗ 3 30 км 10/10 1000 м
[Sc]
+11.5 -1.4 41 +10 +10 1013.0 1009.6
20 18.01 Ю 4 30 км 10/10 1000 м
[Sc]
+11.6 +0.3 46 +10 +10 1013.2 1009.8
03 19.01 З 3 25 км 10/10 1000 м
[Sc]
+12.1 +4.9 61 +11 +11 1009.9 1006.5
04 19.01 Ю 3 20 км 10/10 1000 м
[Sc]
+12.5 +3.5 54 +11 +11 1009.7 1006.3
05 19.01 Ю 6 20 км 10/10 1000 м
[Sc]
+12.8 +3.6 54 +11 +11 1009.3 1006.0
06 19.01 Ю 4 20 км 9/9 1000 м
[Sc]
+13.1 +4.5 56 +12 +12 1009.6 1006.3 +11.1
07 19.01 Ю 5 20 км 9/9 1000 м
[Sc]
+12.8 +6.0 63 +11 +11 1009.4 1006.1
08 19.01 Ю 2 20 км 9/9 1000 м
[Sc]
+12.7 +5.4 61 +12 +12 1009.4 1006.1
09 19.01 ЮЗ 2 20 км 9/9 1000 м
[Sc]
+13.1 +5.0 58 +13 +13 1009.3 1006.0
10 19.01 Ю 2 20 км 9/9 1000 м
[Sc]
+13.1 +4.5 56 +13 +13 1009.0 1005.7
11 19.01 Ю 4 20 км 9/9 1000 м
[Sc]
+13.2 +4.6 56 +12 +12 1008.9 1005.6
12 19.01 Ю 5 20 км 10/10 1000 м
[Sc]
+13.2 +6.3 63 +11 +11 1008.6 1005.3
13 19.01 Ю 4 15 км 10/10 1000 м
[Sc]
+13.0 +6.7 66 +11 +11 1008.5 1005.2
18 19.01 В 12 6000 м гроза с градом 10/4 600 м
[Cb cap As op]
+5.0 +1.8 80 -2 -2 1010.9 1007.5 +13.8 3
20 19.01 В 7 8000 м слабый дождь {гроза} 10/3 600 м
[Sc As op]
+5.3 +1.9 79 0 0 1012.3 1008.9
19 19.01 В 7 8000 м гроза, ливневой дождь 10/4 600 м
[Cb cap As op]
+5.2 +1.6 78 -0 -0 1012.0 1008.6
03 20.01 В 9 30 км 1/1 1000 м
[St Ac lent]
+6.0 -0.7 62 +1 +1 1011.2 1007.8
04 20.01 В 8 30 км 1/1 1000 м
[St Ac lent]
+6.2 -1.6 57 +1 +1 1011.6 1008.2
05 20.01 В 5 30 км 1/1 1000 м
[St]
+6.5 -3.1 50 +3 +3 1012.2 1008.8
06 20.01 В 4 30 км 3/0
[Ac lent]
+6.7 -2.8 51 +4 +4 1012.5 1009.1 +5.0 7
08 20.01 В 5 35 км 1/0
[Ac trans Ci fib]
+7.1 -3.5 47 +4 +4 1012.8 1009.4
07 20.01 В 4 35 км 1/0
[Ac lent Ci fib]
+6.5 -2.4 53 +3 +3 1012.8 1009.4
09 20.01 В 3 35 км 5/3 1000 м
[Sc Ac trans]
+8.5 -2.1 47 +6 +8 1013.5 1010.1
10 20.01 ЮВ 3 35 км 4/3 1000 м
[Sc Ci fib]
+9.7 +0.2 52 +8 +10 1013.5 1010.1
11 20.01 ЮВ 2 35 км 3/3 1000 м
[Sc Ac lent]
+11.5 -0.4 44 +11 +14 1013.2 1009.8
12 20.01 Ю 2 35 км 9/9 1000 м
[Sc]
+11.7 -0.7 42 +11 +11 1012.5 1009.1
13 20.01 ЮВ 2 35 км 1/1 1000 м
[Sc]
+12.5 -0.4 41 +12 +14 1011.6 1008.2
18 20.01 ЮВ 2 35 км 8/0
[Ci fib]
+6.9 +0.5 64 +5 +5 1009.9 1006.5 +12.6
19 20.01 В 2 35 км 6/0
[Ci fib]
+6.7 +1.3 68 +5 +5 1009.1 1005.7
20 20.01 ЮВ 2 35 км 4/0
[Ac trans Ci fib]
+6.9 +1.5 68 +5 +5 1008.4 1005.0
03 21.01 Ю 7 12 км в посл. час дождь 10/10 1000 м
[Sc]
+10.1 +7.6 84 +6 +6 1002.3 998.9
04 21.01 ЮЗ 3 6000 м дождь 10/3 600 м
[Frnb As op]
+9.1 +7.5 90 +7 +7 1002.6 999.2
05 21.01 Ю 5 6000 м слабый дождь 10/3 600 м
[Frnb As op]
+8.7 +7.5 92 +5 +5 1002.1 998.7
06 21.01 ЮВ 2 8000 м слабый дождь 10/0 1500 м
[As op]
+8.1 +6.5 90 +6 +6 1002.6 999.2 +6.2 7
07 21.01 СЗ 1 10 км слабый дождь 10/4 1000 м
[Sc As op]
+8.0 +6.4 90 +7 +7 1002.7 999.3
08 21.01 ЮВ 1 12 км в посл. час дождь 10/10 1000 м
[Sc]
+8.2 +6.4 88 +7 +7 1003.1 999.7
09 21.01 ЮВ 1 15 км {дождь} 9/9 1000 м
[Sc]
+8.6 +6.6 87 +8 +8 1003.8 1000.4
10 21.01 Ю 1 25 км {дождь} 9/9 1000 м
[Cu Sc]
+10.1 +6.8 80 +10 +10 1003.9 1000.5
11 21.01 СЗ 1 25 км {дождь} 5/5 1000 м
[Cu Sc]
+11.1 +7.5 78 +11 +13 1004.2 1000.9
12 21.01 СЗ 2 25 км {дождь} 4/4 1000 м
[Cu Sc]
+10.8 +6.9 77 +10 +12 1004.4 1001.0 3
13 21.01 СЗ 3 25 км 3/3 1000 м
[Cu hum]
+11.1 +5.8 70 +9 +11 1004.3 1001.0
18 21.01 СВ 6 25 км 1/1 1000 м
[Sc diur, vesp]
+8.3 +1.4 62 +5 +5 1010.6 1007.2 +13.3 3
19 21.01 СВ 2 25 км 3/3 1000 м
[Sc diur, vesp]
+7.8 +1.0 62 +6 +6 1012.5 1009.1
20 21.01 С 2 25 км 3/3 1000 м
[Sc diur, vesp]
+7.2 +0.8 64 +5 +5 1013.2 1009.8
03 22.01 В 8 25 км 1/1 1000 м
[Sc]
+4.9 -4.0 53 -0 -0 1015.3 1011.8
05 22.01 Ю 4 25 км 1/1 1000 м
[Sc]
+4.6 -5.5 48 +1 +1 1015.6 1012.1
04 22.01 ЮВ 8 25 км 1/1 1000 м
[Sc]
+4.4 -4.7 52 -1 -1 1014.4 1010.9
06 22.01 В 3 25 км ясно +4.3 -5.6 49 +1 +1 1016.3 1012.8 +4.1
07 22.01 В 6 25 км 5/0
[Ci fib]
+4.5 -6.1 46 -0 0 1016.4 1012.9
08 22.01 В 5 30 км 4/0
[Ci fib]
+4.9 -7.0 42 +1 +2 1016.8 1013.3
09 22.01 В 5 30 км 1/0
[Ci fib]
+6.9 -6.5 38 +4 +5 1016.9 1013.5
11 22.01 ЮВ 2 30 км 1/0
[Ci fib]
+10.1 -4.8 35 +9 +13 1016.5 1013.1
10 22.01 В 4 30 км ясно +8.1 -5.6 37 +6 +8 1016.8 1013.4
12 22.01 З 1 30 км 1/0
[Ci fib]
+11.1 -3.8 35 +11 +16 1015.6 1012.2
13 22.01 СЗ 1 30 км 1/1 1000 м
[Sc Ci fib]
+10.3 -3.0 39 +11 +13 1015.6 1012.2
18 22.01 ЮВ 1 30 км 9/9 1000 м
[Sc]
+6.9 -0.4 60 +6 +6 1014.6 1011.2 +11.1
20 22.01 ЮВ 1 30 км 10/10 1000 м
[Sc]
+6.9 +1.0 66 +6 +6 1015.5 1012.1

 

Местоположение метеостанции Senj (Хорватия): широта 45.00 долгота 14.90 высота над уровнем моря 28 м.

В архиве по умолчанию представлена погода в Senj за последнюю неделю. Архивные данные за месяц целиком и за предыдущие месяцы, начиная с января 2011 года, Вы можете получить, выбрав интересующий диапазон дат из раскрывающегося списка и нажав кнопку "Ввод!".

Внимание! Время в таблицах - всемирное. Для получения местного времени необходимо прибавить поправку, которая в Senj равна 1 ч.

Смотрите также архив погоды в соседних городах и на ближайших метеорологических станциях:

Погода в Zavizan (Хорватия) (21 км)
Погода в Rab (Хорватия) (30 км)
Погода в Rijeka-Omisalj (Хорватия) (35 км)
Погода в Ogulin (Хорватия) (40 км)
Погода в Rijeka-Kozala (Хорватия) (51 км)
Погода в Mali Losinj (Хорватия) (62 км)
Погода в Gospic (Хорватия) (62 км)
Погода в Crnomelj (Словения) (66 км)
Погода в Parg (Хорватия) (70 км)
Погода в Kocevje (Словения) (72 км)

Пояснения к столбцам:

Ветер - указаны скорость ветра в м/с - средняя за 10 мин, порывы в срок и между сроками (в фигурных скобках) и направление, откуда дует ветер: С - северный, СВ - северо-восточный, В - восточный, ЮВ - юго-восточный, Ю - южный, ЮЗ - юго-западный, З - западный, СЗ - северо-западный.
Видимость - горизонтальная дальность видимости в метрах или километрах. При видимости от 1 до 10 км при отсутствии осадков обычно наблюдается дымка, при ухудшении видимости до 1 км и менее - туман. В сухую погоду видимость может ухудшаться дымом, пылью или мглою.
Явления - указаны атмосферные явления, наблюдавшиеся в срок или в последний час перед сроком; фигурными скобками обозначены явления, наблюдавшиеся между сроками (за 1-3 часа до срока); квадратными скобками обозначены град или гололедные отложения с указанием их диаметра в мм.
Облачность - указаны через наклонную черту общая и нижняя облачность в баллах и высота нижней границы облаков в метрах; квадратными скобками обозначены формы облаков: Ci - перистые, Cs - перисто-слоистые, Cc - перисто-кучевые, Ac - высококучевые, As - высокослоистые, Sc - слоисто-кучевые, Ns - слоисто-дождевые, Cu - кучевые, Cb - кучево-дождевые. Подробнее классификацию облаков см. в Атласе облаков (PDF).
T - Температура воздуха - температура, измеренная на высоте 2 м над землей.
Td - Температура точки росы - температура, при понижении до которой содержащийся в воздухе водяной пар достигнет насыщения.
f - Относительная влажность воздуха - влажноcть воздуха, измеренная на высоте 2 м над землей.
Te - Эффективная температура - температура, которую ощущает одетый по сезону человек в тени. Характеристика душности погоды. При расчете учитывается влияние влажности воздуха и скорости ветра на теплоощущения человека.
Tes - Эффективная температура на солнце - температура, которую ощущает человек, с поправкой на солнечный нагрев. Характеристика знойности погоды. Зависит от высоты солнца над горизонтом, облачности и скорости ветра. Ночью, в пасмурную погоду, а также при ветре 12 м/с и более поправка равна нулю.
P - Атмосферное давление - приведенное к уровню моря атмосферное давление.
Po - Атмосферное давление - измеренное на уровне метеостанции атмосферное давление.
Tmin - Минимальная температура - минимум температуры воздуха на высоте 2 м над землей.
Tmax - Максимальная температура - максимум температуры воздуха на высоте 2 м над землей.
R - Количество осадков - Количество выпавших осадков за период времени, мм. При наведении курсора мыши на число - период времени, за который выпало указанное количество осадков.
R24 - Количество осадков - Количество выпавших осадков за 24 часа, мм.
S - Снежный покров - Высота снежного покрова, см. При наведении курсора мыши на число - состояние снежного покрова и степень покрытия местности в баллах.